Regional Weather Roundup
Issued by NWS

Home | Current Version | Previous Version | Text Only | Print | Product List | Glossary Off
Versions: 1 2 3 4 5 6 7 8 9 10 11 12 13 14 15 16 17 18 19 20 21 22 23 24 25 26 27 28 29 30 31 32 33 34 35 36 37 38 39 40 41 42 43 44 45 46 47 48 49 50

000
ASUS43 KBIS 141210
RWRND

NORTH DAKOTA REGIONAL WEATHER ROUNDUP
NATIONAL WEATHER SERVICE BISMARCK ND
600 AM CST SUN FEB 14 2016

NOTE: "FAIR" INDICATES FEW OR NO CLOUDS BELOW 12,000 FEET WITH NO
SIGNIFICANT WEATHER AND/OR OBSTRUCTIONS TO VISIBILITY.


NDZ001>003-009>011-017-141300-
NORTHWEST NORTH DAKOTA

CITY           SKY/WX    TMP DP  RH WIND       PRES   REMARKS
WILLISTON      CLOUDY    30  26  85 W12       29.76S
6HR MIN TEMP:  28; 6HR MAX TEMP:  35;

MINOT          CLOUDY    25  18  74 NW8       29.71F WCI  16
MINOT AFB      CLOUDY    22  21  99 CALM      29.71S
$$

NDZ018>021-031>035-040>046-141300-
SOUTHWEST NORTH DAKOTA

CITY           SKY/WX    TMP DP  RH WIND       PRES   REMARKS
BISMARCK       LGT SNOW  24  20  84 SW3       29.77S FOG
6HR MIN TEMP:  19; 6HR MAX TEMP:  24; 6HR PCP: TRACE;

DICKINSON      CLEAR     28  25  88 W12       29.72F WCI  18
GARRISON         N/A     27  24  89 NW18      29.72F WCI  14
6HR MIN TEMP:  18; 6HR MAX TEMP:  27; 6HR PCP:  0.01;

HETTINGER ARPT CLEAR     27  24  89 W12       29.78S WCI  17
$$

NDZ004>008-012>016-024-026-027-054-141300-
NORTHEAST NORTH DAKOTA

CITY           SKY/WX    TMP DP  RH WIND       PRES   REMARKS
GRAND FORKS    LGT SNOW  14   9  80 S20       29.89F WCI  -3
GRND FRKS AFB  FLURRIES  12   9  85 S22G29    29.86F WCI  -7
DEVILS LAKE    LGT SNOW  14  10  84 S14       29.75F FOG     WCI  -1
$$

NDZ022-023-025-028>030-036>039-047>053-141300-
SOUTHEAST NORTH DAKOTA

CITY           SKY/WX    TMP DP  RH WIND       PRES   REMARKS
FARGO          LGT SNOW  14   9  80 S21G29    29.92F WCI  -4
6HR MIN TEMP:  13; 6HR MAX TEMP:  14; 6HR PCP:  0.01;

JAMESTOWN      CLOUDY    13   9  84 S16G25    29.78F WCI  -3
$$




USA.gov is the U.S. government's official web portal to all federal, state and local government web resources and services.